Location: Home
(42.5358°N, 72.7383°W)
Time: 21:36:35
(UTC-05:00)

Vanguard 1 Rocket - Pass Details

Date: 08 December 2021
Orbit: 651 x 4225 km, 34.3° (Epoch: 26 January)

Event Time Altitude Azimuth Distance (km) Brightness Sun altitude
Exits shadow 03:30:49 59° 205° (SSW) 2,631 9.3 -39.2°
Maximum altitude 03:32:33 62° 178° (S) 2,727 9.5 -38.9°
Drops below altitude 10° 03:53:02 10° 105° (ESE) 6,942 12.6 -35.1°
Sets 03:59:18 0° 103° (ESE) 8,267 13.3 -33.9°
